period_start,C,m1,H,J0,J1,J2,J3,J4,J5,JA,JB,JC,JD,JJ,JK,JN,#
2014-08-30 00:00:52,-0.00,0.26,0.00,22.60,27.10,29.53,9.54,38.27,1011.30,2038.98,3348.05,3259.98,3525.69,499.94,494.68,33.88,0000 0000 0000 0000 000000
2014-08-30 00:05:53,0.00,0.26,0.00,22.59,27.07,29.50,9.51,38.13,1011.33,2038.99,3348.08,3259.99,3525.89,500.06,495.01,33.92,0000 0000 0000 0000 000000
2014-08-30 00:10:54,-0.00,0.26,0.00,22.59,27.07,29.50,9.57,38.35,1011.41,2038.99,3348.18,3259.99,3525.91,499.93,494.91,33.96,0000 0000 0000 0000 000000
2014-08-30 00:15:55,-0.01,0.26,0.00,22.60,27.05,29.45,9.60,38.13,1011.69,2039.00,3348.62,3259.99,3525.99,500.14,494.98,34.01,0000 0000 0000 0000 000000
2014-08-30 00:20:56,0.00,0.26,0.00,22.61,27.04,29.57,9.61,38.25,1011.68,2039.02,3348.85,3260.01,3525.99,500.26,495.18,34.05,0000 0000 0000 0000 000000
2014-08-30 00:25:56,0.00,0.26,0.00,22.60,27.02,29.53,9.51,38.16,1011.69,2039.03,3348.93,3260.03,3525.99,499.77,494.61,34.09,0000 0000 0000 0000 000000
2014-08-30 00:30:57,-0.00,0.26,0.00,22.59,27.02,29.46,9.59,38.26,1011.44,2039.04,3348.98,3260.11,3525.99,500.45,495.31,34.13,0000 0000 0000 0000 000000
2014-08-30 00:35:58,0.00,0.26,0.00,22.60,27.01,29.47,9.51,38.13,1011.29,2039.03,3348.98,3260.06,3525.99,499.88,494.72,34.17,0000 0000 0000 0000 000000
2014-08-30 00:41:00,-0.00,0.26,0.00,22.60,27.00,29.41,9.60,38.22,1011.29,2039.06,3348.97,3260.19,3526.00,500.24,494.88,34.21,0000 0000 0000 0000 000000
2014-08-30 00:46:01,-0.00,0.26,0.00,22.61,27.00,29.39,9.51,38.38,1011.28,2039.07,3348.98,3260.20,3526.00,500.33,494.94,34.25,0000 0000 0000 0000 000000
2014-08-30 00:51:02,0.00,0.26,0.00,22.60,26.99,29.39,9.51,38.34,1011.29,2039.09,3348.96,3260.26,3526.00,499.62,494.62,34.30,0000 0000 0000 0000 000000
2014-08-30 00:56:03,0.01,0.26,0.00,22.58,26.97,29.43,9.51,38.28,1011.28,2039.15,3348.95,3260.24,3526.01,499.99,494.65,34.34,0000 0000 0000 0000 000000
2014-08-30 01:01:04,0.00,0.26,0.00,22.59,26.97,29.40,9.51,38.26,1011.27,2039.20,3348.96,3260.39,3526.00,499.98,494.68,34.38,0000 0000 0000 0000 000000
2014-08-30 01:06:05,0.02,0.26,0.00,22.61,26.97,29.34,9.57,38.30,1011.26,2039.45,3348.98,3260.84,3526.05,500.02,494.77,34.42,0000 0000 0000 0000 000000
2014-08-30 01:11:07,0.01,0.26,0.00,22.61,26.97,29.36,9.55,38.30,1011.25,2039.68,3348.97,3260.87,3526.02,500.43,495.12,34.46,0000 0000 0000 0000 000000
2014-08-30 01:16:08,0.00,0.26,0.00,22.59,26.97,29.36,9.55,38.13,1011.25,2039.73,3348.98,3260.85,3526.02,499.86,494.69,34.50,0000 0000 0000 0000 000000
2014-08-30 01:21:09,0.01,0.26,0.00,22.59,26.96,29.38,9.50,38.20,1011.25,2039.81,3348.98,3260.91,3526.04,499.67,494.45,34.55,0000 0000 0000 0000 000000
2014-08-30 01:26:10,0.01,0.26,0.00,22.59,26.95,29.35,9.57,38.31,1011.24,2039.71,3348.97,3260.81,3526.04,500.08,494.77,34.59,0000 0000 0000 0000 000000
2014-08-30 01:31:11,0.01,0.26,0.00,22.62,26.95,29.35,9.49,38.36,1011.23,2039.91,3348.97,3260.92,3526.04,499.75,494.54,34.63,0000 0000 0000 0000 000000
2014-08-30 01:36:12,-0.00,0.26,0.00,22.62,26.95,29.36,9.51,38.58,1010.85,2039.83,3348.97,3260.90,3526.01,500.21,494.89,34.67,0000 0000 0000 0000 000000
2014-08-30 01:41:13,0.01,0.26,0.00,22.63,26.95,29.41,9.51,38.45,1010.79,2039.92,3348.99,3260.92,3526.08,499.89,494.58,34.71,0000 0000 0000 0000 000000
2014-08-30 01:46:14,0.00,0.26,0.00,22.63,26.95,29.39,9.52,38.50,1010.88,2039.95,3348.99,3260.96,3526.05,499.82,494.29,34.75,0000 0000 0000 0000 000000
2014-08-30 01:51:15,0.00,0.26,0.00,22.59,26.95,29.35,9.49,38.42,1011.14,2039.94,3348.99,3260.96,3526.03,499.86,494.67,34.80,0000 0000 0000 0000 000000
2014-08-30 01:56:15,0.00,0.26,0.00,22.58,26.94,29.36,9.49,38.37,1011.15,2039.94,3348.96,3260.94,3526.01,499.78,494.60,34.84,0000 0000 0000 0000 000000
2014-08-30 02:01:16,-0.00,0.26,0.00,22.58,26.93,29.37,9.53,38.21,1011.24,2039.94,3348.96,3260.95,3526.01,500.25,494.93,34.88,0000 0000 0000 0000 000000
2014-08-30 02:06:17,0.00,0.26,0.00,22.57,26.92,29.36,9.55,38.58,1011.30,2039.97,3348.96,3260.95,3526.03,499.48,494.39,34.92,0000 0000 0000 0000 000000
2014-08-30 02:11:18,0.00,0.26,0.00,22.59,26.92,29.33,9.55,38.33,1011.58,2039.96,3348.80,3260.88,3526.00,500.18,495.04,34.96,0000 0000 0000 0000 000000
2014-08-30 02:16:19,-0.00,0.26,0.00,22.59,26.92,29.35,9.55,38.40,1011.68,2039.93,3348.65,3260.81,3526.00,500.00,495.03,35.00,0000 0000 0000 0000 000000
2014-08-30 02:21:20,-0.00,0.26,0.00,22.57,26.92,29.35,9.55,38.33,1011.72,2039.96,3348.84,3260.92,3526.01,500.00,494.84,35.05,0000 0000 0000 0000 000000
2014-08-30 02:26:21,-0.00,0.26,0.00,22.58,26.91,29.33,9.59,38.38,1011.73,2039.98,3348.91,3260.96,3526.00,500.40,495.43,35.09,0000 0000 0000 0000 000000
2014-08-30 02:31:22,-0.00,0.26,0.00,22.57,26.90,29.38,9.51,38.30,1011.73,2039.98,3348.90,3260.96,3526.01,500.04,495.01,35.13,0000 0000 0000 0000 000000
2014-08-30 02:36:24,-0.00,0.26,0.00,22.55,26.90,29.34,9.48,38.35,1011.71,2039.99,3348.91,3260.96,3526.00,499.41,494.41,35.17,0000 0000 0000 0000 000000
2014-08-30 02:41:25,0.00,0.26,0.00,22.57,26.90,29.43,9.59,38.47,1011.63,2039.98,3348.87,3260.98,3526.00,500.40,495.37,35.21,0000 0000 0000 0000 000000
2014-08-30 02:46:26,0.00,0.26,0.00,22.58,26.90,29.40,9.54,38.51,1011.60,2039.98,3348.91,3260.99,3526.02,500.20,495.24,35.25,0000 0000 0000 0000 000000
2014-08-30 02:51:26,-0.00,0.26,0.00,22.60,26.90,29.33,9.49,38.31,1011.72,2039.99,3348.88,3260.98,3526.03,499.58,494.60,35.30,0000 0000 0000 0000 000000
2014-08-30 02:56:27,0.01,0.26,0.00,22.57,26.90,29.39,9.52,38.33,1011.73,2039.99,3348.55,3260.97,3526.01,499.98,494.85,35.34,0000 0000 0000 0000 000000
2014-08-30 03:01:28,0.00,0.26,0.00,22.57,26.89,29.39,9.45,38.33,1011.71,2039.99,3348.37,3260.96,3526.00,499.20,494.29,35.38,0000 0000 0000 0000 000000
2014-08-30 03:06:30,0.00,0.26,0.00,22.56,26.89,29.36,9.47,38.52,1011.59,2039.99,3348.60,3260.97,3526.00,500.12,495.07,35.42,0000 0000 0000 0000 000000
2014-08-30 03:11:31,-0.00,0.26,0.00,22.54,26.88,29.33,9.51,38.50,1011.63,2039.99,3348.77,3260.97,3526.00,500.17,495.25,35.46,0000 0000 0000 0000 000000
2014-08-30 03:16:32,0.00,0.26,0.00,22.55,26.87,29.31,9.60,38.41,1011.73,2039.99,3348.50,3260.98,3526.00,500.31,495.26,35.50,0000 0000 0000 0000 000000
2014-08-30 03:21:33,0.01,0.26,0.00,22.55,26.87,29.41,9.60,38.58,1011.76,2039.99,3348.22,3260.96,3526.00,500.33,495.46,35.55,0000 0000 0000 0000 000000
2014-08-30 03:26:34,0.00,0.26,0.00,22.56,26.87,29.47,9.54,38.58,1011.86,2039.99,3348.10,3260.95,3526.00,499.92,495.00,35.59,0000 0000 0000 0000 000000
2014-08-30 03:31:35,-0.00,0.26,0.00,22.57,26.87,29.34,9.49,38.20,1011.87,2039.99,3348.17,3260.96,3526.00,499.97,495.12,35.63,0000 0000 0000 0000 000000
2014-08-30 03:36:36,-0.00,0.26,0.00,22.57,26.87,29.39,9.51,38.64,1011.78,2039.99,3348.33,3260.93,3525.99,500.51,495.48,35.67,0000 0000 0000 0000 000000
2014-08-30 03:41:37,0.00,0.26,0.00,22.56,26.87,29.39,9.46,38.29,1011.74,2039.98,3348.13,3260.79,3525.98,499.91,494.87,35.71,0000 0000 0000 0000 000000
2014-08-30 03:46:38,0.00,0.26,0.00,22.55,26.87,29.38,9.50,38.31,1011.74,2039.99,3348.04,3260.88,3525.98,499.92,494.96,35.75,0000 0000 0000 0000 000000
2014-08-30 03:51:39,-0.00,0.26,0.00,22.57,26.87,29.39,9.56,38.41,1011.85,2039.99,3348.02,3260.88,3525.99,500.32,495.39,35.80,0000 0000 0000 0000 000000
2014-08-30 03:56:39,0.01,0.26,0.00,22.58,26.87,29.35,9.54,38.27,1012.21,2039.99,3348.01,3260.55,3525.97,499.99,495.03,35.84,0000 0000 0000 0000 000000
2014-08-30 04:01:41,-0.00,0.26,0.00,22.57,26.87,29.34,9.57,38.24,1012.24,2039.98,3348.01,3260.39,3525.96,499.93,495.45,35.88,0000 0000 0000 0000 000000
2014-08-30 04:06:41,0.01,0.26,0.00,22.54,26.86,29.33,9.52,38.17,1012.43,2039.98,3348.00,3260.12,3525.80,500.01,495.60,35.92,0000 0000 0000 0000 000000
2014-08-30 04:11:43,-0.00,0.26,0.00,22.56,26.85,29.33,9.61,38.25,1012.57,2039.98,3348.00,3260.19,3525.77,500.46,495.86,35.96,0000 0000 0000 0000 000000
2014-08-30 04:16:44,-0.02,0.26,0.00,22.57,26.85,29.38,9.48,38.18,1012.62,2039.99,3348.00,3260.39,3525.89,499.94,495.52,36.00,0000 0000 0000 0000 000000
2014-08-30 04:21:46,0.00,0.26,0.00,22.54,26.85,29.37,9.44,38.20,1012.70,2039.99,3348.00,3260.49,3525.94,499.69,495.16,36.04,0000 0000 0000 0000 000000
2014-08-30 04:26:46,0.01,0.26,0.00,22.55,26.85,29.38,9.60,38.08,1012.67,2039.99,3348.00,3260.25,3525.88,500.46,496.01,36.09,0000 0000 0000 0000 000000
2014-08-30 04:31:48,0.00,0.26,0.00,22.56,26.85,29.33,9.52,38.13,1012.70,2039.99,3348.00,3260.33,3525.89,500.18,495.69,36.13,0000 0000 0000 0000 000000
2014-08-30 04:36:48,0.00,0.26,0.00,22.56,26.85,29.30,9.47,38.09,1012.71,2039.99,3348.00,3260.31,3525.82,499.49,495.04,36.17,0000 0000 0000 0000 000000
2014-08-30 04:41:49,-0.00,0.26,0.00,22.55,26.85,29.29,9.57,38.11,1012.70,2039.99,3348.00,3260.33,3525.90,500.25,495.68,36.21,0000 0000 0000 0000 000000
2014-08-30 04:46:50,0.00,0.26,0.00,22.56,26.85,29.27,9.55,38.02,1012.71,2039.99,3347.99,3260.27,3525.87,499.73,495.21,36.25,0000 0000 0000 0000 000000
2014-08-30 04:51:51,0.01,0.26,0.00,22.55,26.85,29.28,9.42,38.17,1012.71,2039.99,3347.99,3260.20,3525.65,499.78,495.28,36.29,0000 0000 0000 0000 000000
2014-08-30 04:56:52,-0.01,0.26,0.00,22.54,26.85,29.31,9.64,38.34,1012.71,2039.99,3347.99,3260.36,3525.71,500.38,495.91,36.34,0000 0000 0000 0000 000000
2014-08-30 05:01:53,-0.01,0.26,0.00,22.54,26.85,29.32,9.50,38.08,1012.71,2039.99,3347.99,3260.60,3525.92,499.95,495.43,36.38,0000 0000 0000 0000 000000
2014-08-30 05:06:54,0.00,0.26,0.00,22.56,26.85,29.25,9.56,37.99,1012.71,2039.99,3347.99,3260.38,3525.80,499.89,495.21,36.42,0000 0000 0000 0000 000000
2014-08-30 05:11:55,-0.01,0.26,0.00,22.54,26.85,29.25,9.47,38.23,1012.70,2039.99,3347.99,3260.65,3525.92,500.08,495.70,36.46,0000 0000 0000 0000 000000
2014-08-30 05:16:56,0.00,0.26,0.00,22.54,26.85,29.29,9.56,38.08,1012.61,2039.99,3347.99,3260.65,3525.93,500.23,495.79,36.50,0000 0000 0000 0000 000000
2014-08-30 05:21:56,-0.01,0.26,0.00,22.53,26.85,29.29,9.45,37.83,1012.42,2039.99,3347.99,3260.65,3525.86,499.86,495.36,36.54,0000 0000 0000 0000 000000
2014-08-30 05:26:57,0.01,0.26,0.00,22.53,26.84,29.29,9.54,38.18,1012.26,2039.99,3348.00,3260.72,3525.83,499.87,495.33,36.59,0000 0000 0000 0000 000000
2014-08-30 05:31:58,-0.01,0.26,0.00,22.53,26.84,29.33,9.52,38.15,1012.24,2039.99,3348.01,3260.67,3525.81,499.77,495.12,36.63,0000 0000 0000 0000 000000
2014-08-30 05:36:59,0.00,0.26,0.00,22.57,26.84,29.31,9.56,38.19,1012.22,2039.99,3348.00,3260.68,3525.87,500.24,495.45,36.67,0000 0000 0000 0000 000000
2014-08-30 05:42:00,0.01,0.26,0.00,22.57,26.84,29.31,9.58,38.33,1012.22,2039.99,3348.00,3260.62,3525.72,500.19,495.44,36.71,0000 0000 0000 0000 000000
2014-08-30 05:47:01,0.01,0.26,0.00,22.58,26.85,29.32,9.57,38.33,1012.21,2039.99,3348.00,3260.30,3525.41,499.89,495.13,36.75,0000 0000 0000 0000 000000
2014-08-30 05:52:02,0.00,0.26,0.00,22.57,26.85,29.28,9.51,38.29,1012.19,2039.99,3347.99,3260.15,3525.24,499.78,495.24,36.79,0000 0000 0000 0000 000000
2014-08-30 05:57:03,0.00,0.26,0.00,22.59,26.85,29.32,9.59,38.38,1012.17,2039.99,3347.99,3260.10,3525.17,500.78,495.90,36.83,0000 0000 0000 0000 000000
2014-08-30 06:02:04,0.00,0.26,0.00,22.57,26.85,29.32,9.48,38.55,1012.20,2039.99,3347.98,3260.06,3525.04,499.98,495.33,36.88,0000 0000 0000 0000 000000
2014-08-30 06:07:05,0.00,0.26,0.00,22.55,26.85,29.33,9.58,38.48,1012.22,2039.99,3347.99,3260.05,3525.06,499.86,495.16,36.92,0000 0000 0000 0000 000000
2014-08-30 06:12:07,-0.00,0.26,0.00,22.56,26.85,29.33,9.51,38.37,1012.23,2039.99,3347.99,3260.07,3525.09,499.67,494.97,36.96,0000 0000 0000 0000 000000
2014-08-30 06:17:07,0.00,0.26,0.00,22.57,26.85,29.37,9.56,38.28,1012.24,2039.99,3347.98,3260.07,3525.06,499.79,495.00,37.00,0000 0000 0000 0000 000000
2014-08-30 06:22:08,0.00,0.26,0.00,22.58,26.85,29.37,9.50,38.32,1012.24,2039.99,3347.99,3260.05,3525.07,499.75,494.87,37.04,0000 0000 0000 0000 000000
2014-08-30 06:27:09,0.00,0.26,0.00,22.57,26.85,29.32,9.48,38.33,1012.23,2039.99,3347.97,3260.05,3525.01,499.68,494.96,37.08,0000 0000 0000 0000 000000
2014-08-30 06:32:10,0.00,0.26,0.00,22.56,26.85,29.29,9.53,38.47,1012.22,2039.99,3347.96,3260.02,3525.01,500.17,495.49,37.13,0000 0000 0000 0000 000000
2014-08-30 06:37:11,-0.00,0.26,0.00,22.58,26.85,29.34,9.53,38.40,1012.22,2039.99,3347.98,3260.02,3525.01,500.21,495.55,37.17,0000 0000 0000 0000 000000
2014-08-30 06:42:12,0.00,0.26,0.00,22.58,26.85,29.33,9.60,38.47,1012.22,2039.99,3347.88,3260.02,3525.00,500.46,495.79,37.21,0000 0000 0000 0000 000000
2014-08-30 06:47:13,-0.00,0.26,0.00,22.56,26.85,29.36,9.57,38.48,1012.21,2039.99,3347.63,3260.00,3525.00,500.46,495.66,37.25,0000 0000 0000 0000 000000
2014-08-30 06:52:13,0.01,0.26,0.00,22.58,26.85,29.35,9.56,38.16,1012.22,2039.99,3347.38,3260.00,3525.00,500.27,495.61,37.29,0000 0000 0000 0000 000000
2014-08-30 06:57:14,0.00,0.26,0.00,22.60,26.85,29.31,9.65,38.34,1012.22,2039.99,3347.13,3260.00,3525.00,500.19,495.46,37.33,0000 0000 0000 0000 000000
2014-08-30 07:02:15,0.00,0.26,0.00,22.59,26.85,29.31,9.44,38.17,1012.22,2039.99,3347.19,3260.00,3524.99,499.93,495.12,37.38,0000 0000 0000 0000 000000
2014-08-30 07:07:16,0.00,0.26,0.00,22.61,26.85,29.29,9.55,38.28,1012.22,2039.99,3347.11,3260.00,3524.98,500.41,495.47,37.42,0000 0000 0000 0000 000000
2014-08-30 07:12:18,0.00,0.26,0.00,22.60,26.85,29.28,9.55,38.52,1012.22,2039.98,3347.17,3260.00,3524.99,499.92,495.27,37.46,0000 0000 0000 0000 000000
2014-08-30 07:17:19,0.00,0.26,0.00,22.62,26.85,29.32,9.50,38.40,1012.22,2039.99,3347.09,3260.00,3524.99,499.92,495.17,37.50,0000 0000 0000 0000 000000
2014-08-30 07:22:19,0.00,0.26,0.00,22.63,26.85,29.32,9.56,38.32,1012.22,2039.99,3347.04,3260.00,3524.98,500.32,495.53,37.54,0000 0000 0000 0000 000000
2014-08-30 07:27:20,0.00,0.26,0.00,22.63,26.86,29.29,9.53,38.26,1012.22,2039.99,3347.05,3260.00,3524.98,499.97,495.09,37.58,0000 0000 0000 0000 000000
2014-08-30 07:32:21,0.00,0.26,0.00,22.62,26.87,29.31,9.48,38.06,1012.22,2039.99,3347.01,3260.00,3524.97,499.74,494.97,37.62,0000 0000 0000 0000 000000
2014-08-30 07:37:22,0.00,0.26,0.00,22.62,26.87,29.29,9.51,38.34,1012.22,2039.99,3347.00,3259.98,3524.85,499.69,494.95,37.67,0000 0000 0000 0000 000000
2014-08-30 07:42:23,-0.00,0.26,0.00,22.63,26.87,29.30,9.52,38.26,1012.23,2039.99,3347.00,3259.97,3524.67,500.12,495.16,37.71,0000 0000 0000 0000 000000
2014-08-30 07:47:24,0.00,0.26,0.00,22.63,26.87,29.30,9.53,38.60,1012.22,2039.98,3347.00,3259.97,3524.36,500.06,495.29,37.75,0000 0000 0000 0000 000000
2014-08-30 07:52:25,-0.00,0.26,0.00,22.64,26.87,29.27,9.56,38.29,1012.22,2039.99,3347.00,3259.94,3524.37,500.17,495.21,37.79,0000 0000 0000 0000 000000
2014-08-30 07:57:26,0.01,0.27,0.00,22.65,26.87,29.25,9.52,38.31,1012.22,2039.98,3346.99,3259.80,3524.16,499.87,494.97,37.83,0000 0000 0000 0000 000000
2014-08-30 08:02:28,0.01,0.27,0.00,22.64,26.87,29.26,9.55,38.57,1012.22,2039.98,3346.97,3259.47,3524.04,500.21,495.33,37.87,0000 0000 0000 0000 000000
2014-08-30 08:07:29,-0.01,0.27,0.00,22.67,26.87,29.27,9.55,38.42,1012.22,2039.98,3346.99,3259.81,3524.08,500.18,495.28,37.92,0000 0000 0000 0000 000000
2014-08-30 08:12:29,0.01,0.27,0.00,22.67,26.87,29.25,9.52,38.26,1012.23,2039.99,3346.97,3259.48,3524.03,500.42,495.57,37.96,0000 0000 0000 0000 000000
2014-08-30 08:17:30,0.00,0.27,0.00,22.64,26.87,29.26,9.46,38.39,1012.36,2039.99,3346.94,3259.40,3524.03,499.61,494.96,38.00,0000 0000 0000 0000 000000
2014-08-30 08:22:31,-0.00,0.27,0.00,22.62,26.87,29.28,9.55,38.40,1012.38,2039.99,3346.88,3259.31,3524.01,499.75,494.99,38.04,0000 0000 0000 0000 000000
2014-08-30 08:27:32,0.00,0.27,0.00,22.65,26.88,29.28,9.60,38.63,1012.31,2039.98,3346.90,3259.23,3524.00,500.01,495.39,38.08,0000 0000 0000 0000 000000
2014-08-30 08:32:34,0.00,0.27,0.00,22.67,26.88,29.30,9.55,38.64,1012.48,2039.96,3346.74,3259.11,3524.00,499.76,494.84,38.12,0000 0000 0000 0000 000000
2014-08-30 08:37:35,0.01,0.27,0.00,22.69,26.88,29.30,9.51,38.36,1012.61,2039.97,3346.47,3259.04,3524.00,499.56,494.79,38.16,0000 0000 0000 0000 000000
2014-08-30 08:42:36,0.01,0.27,0.00,22.69,26.88,29.26,9.51,38.37,1012.69,2039.98,3346.10,3259.01,3523.99,499.88,495.10,38.21,0000 0000 0000 0000 000000
2014-08-30 08:47:36,0.00,0.27,0.00,22.67,26.88,29.28,9.49,38.26,1012.70,2039.99,3346.10,3259.02,3523.99,499.81,494.95,38.25,0000 0000 0000 0000 000000
2014-08-30 08:52:38,-0.00,0.27,0.00,22.66,26.89,29.27,9.58,38.33,1012.71,2039.98,3346.05,3259.02,3523.99,500.21,495.52,38.29,0000 0000 0000 0000 000000
2014-08-30 08:57:39,0.00,0.27,0.00,22.69,26.89,29.26,9.60,38.27,1012.71,2039.99,3346.02,3259.02,3523.99,500.34,495.70,38.33,0000 0000 0000 0000 000000
2014-08-30 09:02:39,0.00,0.27,0.00,22.66,26.89,29.30,9.46,38.16,1012.71,2039.98,3346.01,3259.00,3523.99,499.73,495.20,38.37,0000 0000 0000 0000 000000
2014-08-30 09:07:40,0.00,0.27,0.00,22.66,26.89,29.29,9.51,38.43,1012.71,2039.97,3346.01,3259.00,3523.99,499.79,495.12,38.41,0000 0000 0000 0000 000000
2014-08-30 09:12:41,0.00,0.27,0.00,22.64,26.89,29.29,9.57,38.39,1012.71,2039.98,3346.01,3259.00,3523.99,500.27,495.61,38.46,0000 0000 0000 0000 000000
2014-08-30 09:17:42,0.00,0.27,0.00,22.62,26.89,29.30,9.55,38.35,1012.71,2039.98,3346.00,3259.00,3523.98,499.96,495.36,38.50,0000 0000 0000 0000 000000
2014-08-30 09:22:44,-0.00,0.27,0.00,22.64,26.89,29.31,9.60,38.36,1012.71,2039.97,3346.00,3259.00,3523.98,500.16,495.47,38.54,0000 0000 0000 0000 000000
2014-08-30 09:27:44,0.00,0.27,0.00,22.63,26.88,29.30,9.53,38.31,1012.73,2039.98,3346.00,3259.00,3523.98,500.23,495.63,38.58,0000 0000 0000 0000 000000
2014-08-30 09:32:45,0.00,0.27,0.00,22.62,26.87,29.31,9.57,38.35,1012.87,2039.99,3346.00,3259.00,3523.98,499.96,495.63,38.62,0000 0000 0000 0000 000000
2014-08-30 09:37:46,0.00,0.27,0.00,22.63,26.87,29.32,9.61,38.07,1012.93,2039.99,3346.00,3259.01,3523.98,500.43,495.96,38.66,0000 0000 0000 0000 000000
2014-08-30 09:42:47,0.00,0.27,0.00,22.60,26.87,29.29,9.56,38.33,1013.01,2039.98,3346.00,3259.00,3523.98,499.88,495.59,38.71,0000 0000 0000 0000 000000
2014-08-30 09:47:48,-0.00,0.27,0.00,22.58,26.87,29.39,9.57,38.37,1013.15,2039.99,3346.00,3259.00,3523.98,500.05,495.67,38.75,0000 0000 0000 0000 000000
2014-08-30 09:52:49,-0.00,0.27,0.00,22.56,26.86,29.44,9.51,38.25,1013.15,2039.99,3346.00,3259.00,3523.97,499.97,495.68,38.79,0000 0000 0000 0000 000000
2014-08-30 09:57:50,-0.00,0.27,0.00,22.56,26.85,29.44,9.56,38.32,1013.18,2039.99,3346.00,3259.00,3523.98,499.89,495.68,38.83,0000 0000 0000 0000 000000
2014-08-30 10:02:51,0.00,0.27,0.00,22.59,26.85,29.43,9.54,38.48,1013.19,2039.99,3345.98,3259.00,3523.98,499.82,495.59,38.87,0000 0000 0000 0000 000000
2014-08-30 10:07:52,0.00,0.27,0.00,22.56,26.85,29.43,9.56,38.17,1013.19,2039.99,3345.99,3259.00,3523.99,499.96,495.85,38.91,0000 0000 0000 0000 000000
2014-08-30 10:12:53,0.00,0.27,0.00,22.56,26.85,29.43,9.58,38.42,1013.19,2039.99,3345.98,3259.01,3523.98,500.03,496.00,38.96,0000 0000 0000 0000 000000
2014-08-30 10:17:54,0.00,0.27,0.00,22.56,26.84,29.44,9.57,38.33,1013.20,2039.99,3345.99,3259.00,3523.98,499.60,495.34,39.00,0000 0000 0000 0000 000000
2014-08-30 10:22:55,0.00,0.27,0.00,22.54,26.82,29.42,9.55,38.55,1013.20,2039.99,3345.99,3259.01,3523.98,499.96,496.02,39.04,0000 0000 0000 0000 000000
2014-08-30 10:27:56,0.00,0.27,0.00,22.52,26.82,29.40,9.56,38.31,1013.21,2039.99,3345.99,3259.02,3523.98,499.94,495.76,39.08,0000 0000 0000 0000 000000
2014-08-30 10:32:57,0.00,0.27,0.00,22.51,26.82,29.41,9.56,38.27,1013.20,2039.99,3345.98,3259.02,3523.98,500.06,495.78,39.12,0000 0000 0000 0000 000000
2014-08-30 10:37:58,0.00,0.27,0.00,22.50,26.82,29.46,9.60,38.31,1013.20,2039.99,3345.99,3259.01,3523.99,499.92,495.85,39.16,0000 0000 0000 0000 000000
2014-08-30 10:42:59,0.00,0.27,0.00,22.50,26.80,29.45,9.58,38.40,1013.20,2040.00,3345.99,3259.01,3523.99,500.20,496.13,39.20,0000 0000 0000 0000 000000
2014-08-30 10:47:59,0.00,0.27,0.00,22.50,26.80,29.45,9.49,38.16,1013.20,2040.00,3345.99,3259.01,3523.99,499.78,495.71,39.25,0000 0000 0000 0000 000000
2014-08-30 10:53:01,0.00,0.27,0.00,22.50,26.80,29.44,9.56,38.31,1013.20,2040.00,3345.99,3259.00,3523.99,499.95,495.85,39.29,0000 0000 0000 0000 000000
2014-08-30 10:58:02,0.00,0.27,0.00,22.52,26.79,29.46,9.57,38.13,1013.22,2040.00,3345.98,3259.02,3523.98,499.91,495.89,39.33,0000 0000 0000 0000 000000
2014-08-30 11:03:03,0.00,0.27,0.00,22.51,26.78,29.48,9.55,38.17,1013.21,2040.02,3345.99,3259.03,3523.99,500.07,495.98,39.37,0000 0000 0000 0000 000000
2014-08-30 11:08:04,-0.00,0.27,0.00,22.50,26.77,29.47,9.55,38.26,1013.21,2040.02,3345.99,3259.09,3523.99,499.88,495.67,39.41,0000 0000 0000 0000 000000
2014-08-30 11:13:05,0.00,0.27,0.00,22.48,26.77,29.47,9.58,38.31,1013.20,2040.02,3345.99,3259.09,3523.99,500.18,495.93,39.45,0000 0000 0000 0000 000000
2014-08-30 11:18:06,0.00,0.27,0.00,22.47,26.77,29.48,9.54,38.22,1013.20,2040.01,3345.98,3259.04,3523.99,500.47,496.49,39.50,0000 0000 0000 0000 000000
2014-08-30 11:23:07,0.00,0.27,0.00,22.44,26.75,29.49,9.60,38.23,1013.20,2040.02,3345.97,3259.05,3523.99,500.32,496.24,39.54,0000 0000 0000 0000 000000
2014-08-30 11:28:08,0.00,0.27,0.00,22.45,26.75,29.49,9.56,38.14,1013.21,2040.05,3345.98,3259.08,3523.99,499.90,495.76,39.58,0000 0000 0000 0000 000000
2014-08-30 11:33:09,-0.00,0.27,0.00,22.47,26.75,29.45,9.54,38.12,1013.20,2040.06,3345.96,3259.07,3523.99,500.31,496.23,39.62,0000 0000 0000 0000 000000
2014-08-30 11:38:10,0.02,0.27,0.00,22.45,26.73,29.47,9.50,38.11,1013.20,2040.17,3345.96,3259.12,3523.99,499.79,495.65,39.66,0000 0000 0000 0000 000000
2014-08-30 11:43:12,-0.01,0.27,0.00,22.44,26.72,29.45,9.51,38.14,1013.20,2040.16,3345.97,3259.17,3523.99,499.85,495.88,39.70,0000 0000 0000 0000 000000
2014-08-30 11:48:13,0.01,0.27,0.00,22.43,26.72,29.43,9.63,38.09,1013.20,2040.17,3345.95,3259.15,3523.99,500.08,495.93,39.75,0000 0000 0000 0000 000000
2014-08-30 11:53:14,0.03,0.27,0.00,22.44,26.72,29.43,9.55,38.14,1013.21,2040.57,3345.98,3259.49,3523.99,499.92,495.97,39.79,0000 0000 0000 0000 000000
2014-08-30 11:58:15,0.01,0.27,0.00,22.42,26.70,29.44,9.56,38.17,1013.21,2040.69,3345.98,3259.39,3524.00,500.00,496.17,39.83,0000 0000 0000 0000 000000
2014-08-30 12:03:16,0.02,0.27,0.00,22.43,26.70,29.43,9.56,38.15,1013.21,2040.78,3345.98,3259.43,3524.00,499.70,495.68,39.87,0000 0000 0000 0000 000000
2014-08-30 12:08:17,0.01,0.27,0.00,22.43,26.70,29.45,9.53,38.09,1013.21,2040.91,3345.95,3259.47,3524.00,500.02,496.00,39.91,0000 0000 0000 0000 000000
2014-08-30 12:13:18,-0.00,0.27,0.00,22.46,26.69,29.44,9.57,37.88,1013.21,2040.91,3345.93,3259.55,3524.00,500.05,496.04,39.95,0000 0000 0000 0000 000000
2014-08-30 12:18:18,0.00,0.27,0.00,22.48,26.67,29.44,9.55,37.98,1013.21,2040.96,3345.97,3259.79,3524.01,499.94,495.74,40.00,0000 0000 0000 0000 000000
2014-08-30 12:23:20,-0.00,0.27,0.00,22.46,26.67,29.43,9.58,38.17,1013.21,2040.95,3345.97,3259.77,3524.00,500.15,496.06,40.04,0000 0000 0000 0000 000000
2014-08-30 12:28:21,0.00,0.27,0.00,22.44,26.67,29.41,9.55,38.05,1013.20,2040.98,3345.91,3259.74,3524.00,500.10,496.02,40.08,0000 0000 0000 0000 000000
2014-08-30 12:33:22,0.00,0.27,0.00,22.44,26.66,29.41,9.59,38.04,1013.20,2040.98,3345.88,3259.69,3524.01,500.00,496.09,40.12,0000 0000 0000 0000 000000
2014-08-30 12:38:23,0.00,0.27,0.00,22.45,26.65,29.42,9.49,38.06,1013.21,2040.98,3345.74,3259.68,3524.01,499.52,495.46,40.16,0000 0000 0000 0000 000000
2014-08-30 12:43:24,0.00,0.27,0.00,22.44,26.65,29.40,9.60,38.08,1013.20,2040.99,3345.80,3259.80,3524.01,500.15,496.10,40.20,0000 0000 0000 0000 000000
2014-08-30 12:48:25,-0.01,0.27,0.00,22.44,26.65,29.38,9.50,38.08,1013.20,2040.99,3345.86,3259.87,3524.02,499.86,495.86,40.25,0000 0000 0000 0000 000000
2014-08-30 12:53:25,-0.00,0.27,0.00,22.44,26.63,29.37,9.61,38.22,1013.20,2040.99,3345.88,3259.93,3524.02,499.83,495.81,40.29,0000 0000 0000 0000 000000
2014-08-30 12:58:26,0.00,0.27,0.00,22.47,26.62,29.34,9.62,38.19,1013.20,2040.99,3345.75,3259.87,3524.02,499.99,495.92,40.33,0000 0000 0000 0000 000000